QPF
0.00 0.00 0.00 0.00 0.00 0.00 0.00 0.00 0.00 0.00 0.00 0.00 0.00 0.00 0.00 0.00 0.00 0.00 0.00 0.00 0.00 0.00 0.00 0.00 0.00 0.00 0.00 0.00 0.00 0.00 0.00 0.00 0.00 0.00 0.00 0.00 0.00 0.00 0.00 0.00 0.00 0.00 0.00 0.00 0.00
0.00 0.00 0.00 0.00 0.00 0.00 0.00 0.00 0.00 0.00 0.00 0.00 0.00 0.00 0.00 0.00 0.00 0.00 0.00 0.00 0.00 0.00 0.00 0.00 0.00 0.00 0.00 0.00 0.00 0.00 0.00 0.00 0.00 0.00 0.00 0.00 0.00 0.00 0.00 0.00 0.00 0.00 0.00 0.00 0.00
0.00 0.00 0.00 0.00 0.00 0.00 0.00 0.00 0.00 0.00 0.00 0.00 0.00 0.00 0.00 0.00 0.00 0.00 0.00 0.00 0.00 0.00 0.00 0.00 0.00 0.00 0.00 0.00 0.00 0.00 0.00 0.00 0.00 0.00 0.00 0.00 0.00 0.00 0.00 0.00 0.00 0.00 0.00 0.00 0.00
0.00 0.00 0.00 0.00 0.00 0.00 0.00 0.00 0.00 0.00 0.00 0.00 0.00 0.00 0.00 0.00 0.00 0.00 0.00 0.00 0.00 0.00 0.00 0.00 0.00 0.00 0.00 0.00 0.00 0.00 0.00 0.00 0.00 0.00 0.00 0.00 0.00 0.00 0.00 0.00 0.00 0.00 0.00 0.00 0.00
0.00 0.00 0.00 0.00 0.00 0.00 0.00 0.00 0.00 0.00 0.00 0.00 0.00 0.00 0.00 0.00 0.00 0.00 0.00 0.00 0.00 0.00 0.00 0.00 0.00 0.00 0.00 0.00 0.00 0.00 0.00 0.00 0.00 0.00 0.00 0.00 0.00 0.00 0.00 0.00 0.00 0.00 0.00 0.00 0.00
0.00 0.00 0.00 0.00 0.00 0.00 0.00 0.00 0.00 0.00 0.00 0.00 0.00 0.00 0.00 0.00 0.00 0.00 0.00 0.00 0.00 0.00 0.00 0.00 0.00 0.00 0.00 0.00 0.00 0.00 0.00 0.00 0.00 0.00 0.00 0.00 0.00 0.00 0.00 0.00 0.00 0.00 0.00 0.00 0.00
0.00 0.00 0.00 0.00 0.00 0.00 0.00 0.00 0.00 0.00 0.00 0.00 0.00 0.00 0.00 0.00 0.00 0.00 0.00 0.00 0.00 0.00 0.00 0.00 0.00 0.00 0.00 0.00 0.00 0.00 0.00 0.00 0.00 0.00 0.00 0.00 0.00 0.00 0.00 0.00 0.00 0.00 0.00 0.00 0.00
0.00 0.00 0.00 0.00 0.00 0.00 0.00 0.00 0.00 0.00 0.00 0.00 0.00 0.00 0.00 0.00 0.00 0.00 0.00 0.00 0.00 0.00 0.00 0.00 0.00 0.00 0.00 0.00 0.00 0.00 0.00 0.00 0.00 0.00 0.00 0.00 0.00 0.00 0.00 0.00 0.00 0.00 0.00 0.00 0.00
0.00 0.00 0.00 0.00 0.00 0.00 0.00 0.00 0.00 0.00 0.00 0.00 0.00 0.00 0.00 0.00 0.00 0.00 0.00 0.00 0.00 0.00 0.00 0.00 0.00 0.00 0.00 0.00 0.00 0.00 0.00 0.00 0.00 0.00 0.00 0.00 0.00 0.00 0.00 0.00 0.00 0.00 0.00 0.00 0.00
0.00 0.00 0.00 0.00 0.00 0.00 0.00 0.00 0.00 0.00 0.00 0.00 0.00 0.00 0.00 0.00 0.00 0.00 0.00 0.00 0.00 0.00 0.00 0.00 0.00 0.00 0.00 0.00 0.00 0.00 0.00 0.00 0.00 0.00 0.00 0.00 0.00 0.00 0.00 0.00 0.00 0.00 0.00 0.00 0.00
0.00 0.00 0.00 0.00 0.00 0.00 0.00 0.00 0.00 0.00 0.00 0.00 0.00 0.00 0.00 0.00 0.00 0.00 0.00 0.00 0.00 0.00 0.00 0.00 0.00 0.00 0.00 0.00 0.00 0.00 0.00 0.00 0.00 0.00 0.00 0.00 0.00 0.00 0.00 0.00 0.00 0.00 0.00 0.00 0.00
0.00 0.00 0.00 0.00 0.00 0.00 0.00 0.00 0.00 0.00 0.00 0.00 0.00 0.00 0.00 0.00 0.00 0.00 0.00 0.00 0.00 0.00 0.00 0.00 0.00 0.00 0.00 0.00 0.00 0.00 0.00 0.00 0.00 0.00 0.00 0.00 0.00 0.00 0.00 0.00 0.00 0.00 0.00 0.00 0.00
0.00 0.00 0.00 0.00 0.00 0.00 0.00 0.00 0.00 0.00 0.00 0.00 0.00 0.00 0.00 0.00 0.00 0.00 0.00 0.00 0.00 0.00 0.00 0.00 0.00 0.00 0.00 0.00 0.00 0.00 0.00 0.00 0.00 0.00 0.00 0.00 0.00 0.00 0.00 0.00 0.00 0.00 0.00 0.00 0.00
0.00 0.00 0.00 0.00 0.00 0.00 0.00 0.00 0.00 0.00 0.00 0.00 0.00 0.00 0.00 0.00 0.00 0.00 0.00 0.00 0.00 0.00 0.00 0.00 0.00 0.00 0.00 0.00 0.00 0.00 0.00 0.00 0.00 0.00 0.00 0.00 0.00 0.00 0.00 0.00 0.00 0.00 0.00 0.00 0.00
0.00 0.00 0.00 0.00 0.00 0.00 0.00 0.00 0.00 0.00 0.00 0.00 0.00 0.00 0.00 0.00 0.00 0.00 0.00 0.00 0.00 0.00 0.00 0.00 0.00 0.00 0.00 0.00 0.00 0.00 0.00 0.00 0.00 0.00 0.00 0.00 0.00 0.00 0.00 0.00 0.00 0.00 0.00 0.00 0.00
0.00 0.00 0.00 0.00 0.00 0.00 0.00 0.00 0.00 0.00 0.00 0.00 0.00 0.00 0.00 0.00 0.00 0.00 0.00 0.00 0.00 0.00 0.00 0.00 0.00 0.00 0.00 0.00 0.00 0.00 0.00 0.00 0.00 0.00 0.00 0.00 0.00 0.00 0.00 0.00 0.00 0.00 0.00 0.00 0.00
0.00 0.00 0.00 0.00 0.00 0.00 0.00 0.00 0.00 0.00 0.00 0.00 0.00 0.00 0.00 0.00 0.00 0.00 0.00 0.00 0.00 0.00 0.00 0.00 0.00 0.00 0.00 0.00 0.00 0.00 0.00 0.00 0.00 0.00 0.00 0.00 0.00 0.00 0.00 0.00 0.00 0.00 0.00 0.00 0.00
0.00 0.00 0.00 0.00 0.00 0.00 0.00 0.00 0.00 0.00 0.00 0.00 0.00 0.00 0.00 0.00 0.00 0.00 0.00 0.00 0.00 0.00 0.00 0.00 0.00 0.00 0.00 0.00 0.00 0.00 0.00 0.00 0.00 0.00 0.00 0.00 0.00 0.00 0.00 0.00 0.00 0.00 0.00 0.00 0.00
0.00 0.00 0.00 0.00 0.00 0.00 0.00 0.00 0.00 0.00 0.00 0.00 0.00 0.00 0.00 0.00 0.00 0.00 0.00 0.00 0.00 0.00 0.00 0.00 0.00 0.00 0.00 0.00 0.00 0.00 0.00 0.00 0.00 0.00 0.00 0.00 0.00 0.00 0.00 0.00 0.00 0.00 0.00 0.00 0.00
0.00 0.00 0.00 0.00 0.00 0.00 0.00 0.00 0.00 0.00 0.00 0.00 0.00 0.00 0.00 0.00 0.00 0.00 0.00 0.00 0.00 0.00 0.00 0.00 0.00 0.00 0.00 0.00 0.00 0.00 0.00 0.00 0.00 0.00 0.00 0.00 0.00 0.00 0.00 0.00 0.00 0.00 0.00 0.00 0.00
0.00 0.00 0.00 0.00 0.00 0.00 0.00 0.00 0.00 0.00 0.00 0.00 0.00 0.00 0.00 0.00 0.00 0.00 0.00 0.00 0.00 0.00 0.00 0.00 0.00 0.00 0.00 0.00 0.00 0.00 0.00 0.00 0.00 0.00 0.00 0.00 0.00 0.00 0.00 0.00 0.00 0.00 0.00 0.00 0.00
0.00 0.00 0.00 0.00 0.00 0.00 0.00 0.00 0.00 0.00 0.00 0.00 0.00 0.00 0.00 0.00 0.00 0.00 0.00 0.00 0.00 0.00 0.00 0.00 0.00 0.00 0.00 0.00 0.00 0.00 0.00 0.00 0.00 0.00 0.00 0.00 0.00 0.00 0.00 0.00 0.00 0.00 0.00 0.00 0.00
0.00 0.00 0.00 0.00 0.00 0.00 0.00 0.00 0.00 0.00 0.00 0.00 0.00 0.00 0.00 0.00 0.00 0.00 0.00 0.00 0.00 0.00 0.00 0.00 0.00 0.00 0.00 0.00 0.00 0.00 0.00 0.00 0.00 0.00 0.00 0.00 0.00 0.00 0.00 0.00 0.00 0.00 0.00 0.00 0.00
0.00 0.00 0.00 0.00 0.00 0.00 0.00 0.00 0.00 0.00 0.00 0.00 0.00 0.00 0.00 0.00 0.00 0.00 0.00 0.00 0.00 0.00 0.00 0.00 0.00 0.00 0.00 0.00 0.00 0.00 0.00 0.00 0.00 0.00 0.00 0.00 0.00 0.00 0.00 0.00 0.00 0.00 0.00 0.00 0.00
0.00 0.00 0.00 0.00 0.00 0.00 0.00 0.00 0.00 0.00 0.00 0.00 0.00 0.00 0.00 0.00 0.00 0.00 0.00 0.00 0.00 0.00 0.00 0.00 0.00 0.00 0.00 0.00 0.00 0.00 0.00 0.00 0.00 0.00 0.00 0.00 0.00 0.00 0.00 0.00 0.00 0.00 0.00 0.00 0.00
0.00 0.00 0.00 0.00 0.00 0.00 0.00 0.00 0.00 0.00 0.00 0.00 0.00 0.00 0.00 0.00 0.00 0.00 0.00 0.00 0.00 0.00 0.00 0.00 0.00 0.00 0.00 0.00 0.00 0.00 0.00 0.00 0.00 0.00 0.00 0.00 0.00 0.00 0.00 0.00 0.00 0.00 0.00 0.00 0.00
0.00 0.00 0.00 0.00 0.00 0.00 0.00 0.00 0.00 0.00 0.00 0.00 0.00 0.00 0.00 0.00 0.00 0.00 0.00 0.00 0.00 0.00 0.00 0.00 0.00 0.00 0.00 0.00 0.00 0.00 0.00 0.00 0.00 0.00 0.00 0.00 0.00 0.00 0.00 0.00 0.00 0.01 0.01 0.00 0.00
MSLP
1023.40 1023.29 1023.19 1023.07 1022.94 1022.79 1022.58 1022.34 1022.06 1021.76 1021.51 1021.21 1020.89 1020.71 1020.76 1020.75 1020.62 1020.20 1020.40 1022.05 1020.92 1019.59 1019.12 1018.75 1018.58 1018.63 1018.78 1020.33 1021.11 1021.29 1022.58 1024.88 1025.60 1026.07 1026.27 1026.61 1026.87 1026.87 1026.80 1026.69 1026.63 1026.81 1026.97 1027.24 1027.54
1023.59 1023.47 1023.36 1023.20 1023.06 1022.92 1022.71 1022.45 1022.14 1021.86 1021.58 1021.25 1020.89 1020.60 1020.62 1020.76 1020.98 1021.33 1022.51 1021.58 1020.71 1019.88 1019.67 1019.48 1019.35 1019.26 1020.75 1022.02 1022.38 1022.66 1024.41 1025.63 1026.12 1026.46 1026.77 1027.01 1027.24 1027.02 1027.14 1026.99 1026.88 1026.90 1027.00 1027.38 1027.83
1023.71 1023.57 1023.46 1023.29 1023.18 1023.01 1022.76 1022.50 1022.21 1021.92 1021.67 1021.34 1021.05 1020.93 1020.78 1020.88 1021.37 1023.13 1022.31 1021.63 1020.78 1020.21 1020.27 1019.94 1019.86 1020.28 1022.30 1023.14 1024.29 1024.42 1025.65 1026.14 1026.49 1026.70 1027.06 1027.28 1027.40 1027.32 1027.38 1027.15 1026.77 1026.88 1026.92 1027.19 1027.55
1023.79 1023.64 1023.53 1023.42 1023.28 1023.07 1022.84 1022.58 1022.25 1021.91 1021.69 1021.34 1021.02 1020.91 1020.91 1021.05 1023.53 1023.86 1022.81 1022.14 1021.30 1020.59 1020.23 1020.34 1020.57 1021.69 1023.70 1024.67 1025.19 1025.80 1026.45 1026.46 1026.81 1027.20 1027.52 1027.70 1027.67 1027.56 1027.40 1026.74 1026.68 1026.76 1026.94 1027.24 1027.39
1023.84 1023.72 1023.65 1023.53 1023.38 1023.17 1022.92 1022.66 1022.31 1021.96 1021.68 1021.32 1020.98 1020.83 1020.93 1022.79 1024.77 1023.93 1023.40 1022.74 1021.78 1021.17 1021.30 1021.51 1021.92 1023.05 1024.77 1025.46 1025.72 1026.31 1027.20 1027.19 1027.26 1027.57 1028.05 1027.96 1027.92 1027.84 1027.13 1026.86 1026.90 1026.73 1026.70 1027.10 1027.30
1024.04 1023.95 1023.82 1023.67 1023.48 1023.23 1023.02 1022.73 1022.36 1022.06 1021.74 1021.45 1021.09 1020.95 1021.34 1024.07 1024.77 1024.42 1024.01 1023.22 1022.89 1022.52 1022.77 1022.45 1023.30 1023.39 1024.90 1026.08 1026.44 1027.29 1027.44 1027.53 1027.63 1027.99 1028.43 1028.46 1027.93 1027.99 1026.94 1026.95 1026.80 1026.95 1026.92 1026.93 1027.14
1024.20 1024.08 1023.96 1023.77 1023.51 1023.26 1022.99 1022.70 1022.43 1022.13 1021.80 1021.56 1021.43 1021.49 1022.86 1025.04 1024.79 1024.63 1024.26 1023.87 1023.73 1023.44 1023.60 1023.71 1023.58 1023.60 1025.48 1026.88 1027.33 1027.36 1027.84 1027.98 1028.28 1028.44 1028.61 1028.19 1027.89 1027.60 1026.89 1026.87 1027.06 1027.14 1026.85 1026.44 1026.30
1024.38 1024.20 1024.01 1023.80 1023.55 1023.30 1023.00 1022.69 1022.40 1022.13 1021.87 1021.67 1021.63 1021.87 1024.15 1024.62 1024.63 1024.64 1024.22 1023.83 1023.76 1023.58 1023.81 1023.98 1024.00 1024.77 1026.30 1027.43 1027.76 1028.27 1028.53 1029.07 1028.84 1028.76 1028.80 1028.11 1027.40 1026.73 1026.98 1027.25 1026.94 1026.76 1026.44 1026.25 1025.89
1024.53 1024.33 1024.07 1023.77 1023.55 1023.24 1022.87 1022.58 1022.33 1021.99 1021.91 1021.68 1021.83 1022.28 1024.74 1024.56 1024.82 1025.09 1025.09 1024.98 1024.31 1023.92 1023.97 1024.03 1024.51 1026.59 1027.36 1028.11 1028.99 1030.13 1030.40 1030.66 1029.49 1029.50 1029.59 1029.27 1027.86 1026.59 1026.73 1026.96 1026.50 1026.37 1026.16 1026.01 1025.73
1024.64 1024.41 1024.10 1023.81 1023.47 1023.08 1022.74 1022.57 1022.40 1022.07 1022.24 1022.03 1022.71 1023.85 1025.34 1026.32 1025.98 1025.62 1025.36 1025.18 1024.97 1024.59 1024.47 1024.89 1026.19 1027.98 1029.67 1029.66 1031.63 1031.92 1031.94 1031.56 1031.24 1030.19 1029.97 1029.53 1027.87 1026.92 1026.74 1026.82 1026.42 1026.30 1025.97 1025.67 1025.54
1024.72 1024.42 1024.09 1023.73 1023.40 1023.01 1022.80 1022.78 1023.38 1023.78 1024.63 1025.93 1026.46 1026.60 1026.91 1026.64 1026.16 1025.95 1025.92 1025.75 1025.43 1025.60 1026.82 1027.21 1028.29 1030.58 1031.65 1031.87 1032.12 1032.63 1032.98 1032.91 1031.63 1031.44 1030.96 1029.27 1028.09 1026.45 1026.18 1026.28 1026.01 1025.96 1025.77 1025.24 1024.75
1024.80 1024.44 1024.05 1023.75 1023.50 1023.20 1023.47 1024.87 1025.98 1026.35 1026.99 1026.90 1026.81 1026.92 1027.13 1027.36 1027.04 1026.79 1026.24 1026.65 1026.94 1027.96 1027.99 1028.38 1030.31 1031.48 1031.81 1032.17 1032.40 1032.74 1033.36 1033.14 1031.77 1031.81 1031.76 1029.81 1027.00 1025.81 1025.65 1025.51 1025.32 1025.40 1025.35 1024.75 1024.52
1024.90 1024.50 1024.05 1023.74 1023.64 1024.00 1025.10 1026.12 1026.36 1026.25 1026.39 1027.22 1027.12 1027.18 1027.42 1027.57 1028.46 1028.43 1028.09 1028.52 1028.88 1029.16 1029.74 1029.94 1031.45 1031.68 1032.05 1032.47 1032.56 1032.87 1033.40 1033.56 1033.75 1032.30 1031.91 1030.95 1027.65 1025.90 1025.30 1025.16 1024.83 1024.58 1024.54 1024.46 1024.08
1025.07 1024.64 1024.21 1023.72 1024.10 1025.26 1026.01 1026.31 1026.34 1026.32 1026.68 1027.59 1027.06 1027.35 1027.50 1027.75 1028.88 1029.12 1029.23 1029.40 1029.69 1030.43 1030.74 1031.36 1031.73 1031.92 1032.14 1032.61 1033.08 1033.16 1033.11 1033.51 1033.47 1033.41 1033.28 1032.09 1029.81 1026.35 1025.34 1024.80 1024.28 1023.69 1023.76 1023.54 1023.51
1025.19 1024.80 1024.51 1023.76 1025.12 1025.91 1026.56 1026.45 1026.36 1026.36 1027.09 1027.67 1027.20 1027.03 1027.43 1028.39 1029.63 1029.55 1029.87 1029.43 1030.71 1031.34 1031.48 1032.16 1032.17 1032.23 1032.46 1032.99 1033.37 1033.14 1033.26 1033.50 1033.75 1033.99 1034.06 1032.85 1031.77 1025.58 1025.26 1024.18 1023.19 1022.60 1022.71 1022.71 1022.82
1025.30 1024.94 1024.66 1025.03 1025.73 1026.56 1026.48 1026.36 1026.32 1026.49 1027.09 1027.54 1027.62 1028.00 1028.03 1028.99 1029.84 1030.06 1030.24 1030.57 1031.47 1031.62 1031.90 1032.55 1032.70 1032.88 1033.02 1032.94 1033.13 1032.98 1033.36 1033.49 1033.71 1033.68 1033.88 1033.05 1031.93 1026.19 1024.38 1022.84 1022.71 1022.38 1022.27 1022.26 1022.37
1025.48 1025.28 1025.09 1025.76 1026.64 1026.52 1026.45 1026.31 1026.80 1027.44 1027.75 1028.29 1028.48 1028.84 1029.56 1030.20 1030.59 1031.32 1032.17 1033.16 1034.36 1033.90 1034.02 1033.27 1033.18 1033.21 1033.53 1033.74 1033.54 1033.60 1033.61 1033.77 1033.67 1033.27 1033.18 1032.72 1031.71 1024.56 1022.29 1021.93 1022.12 1022.09 1021.89 1022.06 1022.22
1025.61 1025.51 1026.12 1026.39 1026.58 1026.46 1026.48 1026.50 1027.38 1028.48 1028.62 1029.13 1029.23 1029.37 1030.05 1030.98 1031.76 1032.42 1033.47 1035.44 1036.27 1036.21 1036.36 1036.02 1033.80 1033.80 1034.39 1034.97 1035.15 1035.51 1035.63 1035.66 1036.07 1035.76 1033.83 1032.21 1029.30 1022.68 1021.38 1021.22 1021.45 1021.73 1021.68 1021.85 1021.81
1025.74 1026.24 1026.38 1026.68 1026.55 1026.57 1026.65 1028.01 1029.21 1029.57 1029.87 1029.97 1029.68 1030.07 1030.44 1031.16 1032.11 1032.91 1034.57 1036.09 1036.81 1037.18 1037.32 1037.34 1035.31 1034.51 1034.76 1035.49 1036.34 1036.67 1036.76 1036.71 1036.62 1037.49 1036.07 1030.34 1026.62 1022.19 1020.70 1020.72 1021.03 1021.24 1021.64 1021.48 1021.30
1026.26 1026.53 1026.73 1026.68 1026.65 1026.74 1027.14 1029.63 1030.30 1030.48 1030.60 1030.73 1030.85 1031.18 1031.77 1032.00 1032.55 1033.49 1034.69 1035.84 1037.05 1037.64 1037.71 1038.13 1037.10 1035.15 1035.86 1036.34 1037.19 1037.46 1038.04 1037.88 1037.75 1037.60 1035.66 1030.40 1027.92 1023.66 1021.16 1020.65 1021.10 1021.28 1021.40 1021.27 1021.13
1026.42 1026.95 1026.77 1026.70 1026.76 1027.31 1029.38 1030.50 1030.80 1031.06 1031.24 1031.59 1031.64 1032.03 1032.63 1033.04 1033.36 1034.25 1034.95 1035.81 1036.69 1037.88 1038.23 1038.66 1038.74 1036.39 1036.53 1036.93 1037.40 1038.73 1039.06 1039.34 1038.82 1038.14 1037.08 1033.92 1026.47 1021.55 1020.62 1020.50 1021.07 1020.98 1021.04 1021.17 1021.06
1027.04 1027.31 1026.79 1026.87 1027.51 1029.61 1031.13 1031.14 1031.24 1031.42 1031.60 1031.87 1032.08 1032.45 1033.19 1033.49 1033.97 1034.40 1034.89 1035.44 1036.33 1037.43 1038.75 1039.31 1039.26 1037.96 1035.81 1036.61 1037.66 1038.22 1038.73 1038.74 1039.11 1038.97 1038.26 1035.97 1026.07 1020.26 1020.15 1020.39 1020.91 1020.72 1020.88 1020.72 1020.80
1028.44 1028.23 1026.85 1026.84 1029.18 1031.10 1031.61 1031.55 1031.57 1031.86 1032.02 1032.32 1032.57 1033.02 1033.69 1033.99 1034.48 1034.24 1034.48 1035.17 1036.12 1037.08 1038.23 1038.81 1039.04 1037.84 1035.63 1037.02 1037.31 1038.31 1038.83 1038.84 1038.65 1037.82 1036.36 1034.25 1024.42 1019.84 1020.36 1020.41 1020.03 1020.29 1019.94 1020.05 1020.21
1029.14 1029.48 1028.72 1029.19 1031.04 1031.23 1031.63 1031.68 1031.66 1031.82 1032.07 1032.38 1032.90 1033.31 1033.83 1034.07 1034.34 1034.42 1034.54 1035.06 1035.98 1036.76 1037.20 1037.82 1038.55 1037.89 1036.51 1035.19 1035.96 1037.58 1038.16 1038.29 1037.64 1037.03 1034.07 1029.39 1022.78 1018.74 1019.25 1019.86 1019.22 1019.66 1019.56 1019.77 1019.88
1030.07 1031.69 1031.97 1032.13 1031.92 1032.02 1031.99 1032.15 1031.77 1031.92 1032.32 1032.63 1033.06 1033.35 1033.74 1034.19 1034.09 1034.26 1034.20 1034.76 1035.83 1036.18 1037.11 1037.72 1037.91 1036.84 1034.57 1033.53 1034.34 1035.25 1035.54 1036.12 1035.95 1033.40 1032.40 1023.79 1024.16 1019.79 1019.32 1019.21 1019.02 1019.03 1019.03 1019.45 1019.56
1030.86 1031.75 1032.83 1032.94 1032.21 1031.92 1031.98 1031.75 1031.76 1031.61 1032.04 1032.62 1033.07 1032.87 1033.43 1033.45 1032.77 1033.29 1033.34 1034.17 1034.75 1036.55 1037.55 1038.30 1037.54 1037.24 1033.86 1031.93 1032.89 1032.80 1032.20 1032.66 1032.90 1032.09 1029.55 1026.02 1022.94 1020.03 1019.29 1019.62 1019.35 1019.06 1018.81 1019.07 1019.18
1031.28 1031.41 1031.51 1032.81 1032.42 1032.18 1031.41 1030.97 1030.98 1031.21 1031.47 1031.64 1032.18 1032.79 1033.16 1032.39 1032.36 1032.36 1032.66 1033.22 1034.03 1035.48 1037.16 1038.27 1038.10 1037.40 1033.82 1031.20 1030.91 1029.99 1027.76 1029.16 1029.49 1028.45 1026.43 1024.72 1019.87 1019.18 1018.88 1019.14 1019.00 1018.76 1018.74 1018.85 1019.03
Thickness
5679 5679 5680 5681 5682 5682 5684 5685 5687 5689 5691 5692 5694 5695 5694 5693 5693 5695 5691 5678 5686 5695 5699 5701 5702 5699 5695 5679 5668 5668 5655 5637 5624 5620 5615 5596 5590 5584 5577 5570 5562 5547 5539 5525 5510
5677 5677 5678 5679 5680 5681 5682 5684 5686 5688 5689 5691 5693 5695 5694 5692 5690 5683 5674 5680 5686 5691 5694 5693 5695 5692 5675 5664 5656 5654 5638 5628 5611 5604 5596 5590 5580 5576 5572 5564 5553 5540 5525 5512 5495
5674 5675 5676 5678 5678 5679 5681 5683 5685 5686 5688 5690 5691 5692 5692 5690 5687 5668 5674 5679 5684 5688 5688 5689 5688 5685 5664 5650 5635 5634 5627 5613 5605 5599 5589 5584 5573 5569 5562 5555 5545 5535 5520 5504 5486
5672 5673 5674 5675 5676 5678 5680 5681 5684 5686 5687 5689 5691 5691 5690 5688 5679 5663 5669 5673 5678 5683 5686 5683 5680 5671 5648 5645 5628 5621 5610 5609 5598 5587 5581 5574 5567 5562 5553 5553 5537 5523 5511 5495 5480
5671 5672 5672 5673 5675 5676 5678 5680 5682 5685 5687 5689 5690 5691 5689 5667 5652 5660 5663 5668 5674 5677 5672 5671 5664 5656 5641 5629 5624 5617 5601 5596 5589 5579 5568 5566 5562 5552 5548 5541 5526 5515 5505 5491 5475
5668 5669 5670 5671 5673 5675 5677 5679 5681 5684 5686 5687 5688 5689 5683 5652 5653 5655 5658 5662 5662 5663 5658 5658 5651 5647 5631 5616 5617 5598 5595 5589 5583 5574 5562 5555 5551 5539 5548 5533 5525 5509 5499 5487 5469
5666 5666 5667 5669 5672 5674 5676 5678 5680 5682 5684 5685 5685 5683 5667 5648 5651 5651 5653 5654 5653 5653 5650 5646 5647 5649 5627 5610 5596 5595 5596 5583 5571 5566 5557 5549 5559 5541 5541 5528 5516 5504 5494 5485 5473
5663 5665 5666 5668 5671 5673 5676 5678 5680 5682 5682 5682 5681 5678 5653 5651 5650 5649 5651 5652 5650 5649 5645 5642 5639 5627 5613 5598 5593 5582 5580 5588 5566 5559 5549 5552 5577 5551 5533 5517 5510 5501 5493 5484 5476
5662 5663 5666 5668 5670 5673 5676 5678 5679 5682 5681 5681 5679 5675 5653 5650 5646 5643 5642 5640 5641 5644 5640 5638 5630 5608 5601 5600 5599 5563 5576 5558 5567 5543 5539 5535 5545 5542 5528 5514 5508 5499 5490 5482 5475
5660 5662 5665 5668 5671 5674 5677 5677 5678 5681 5678 5677 5669 5668 5644 5634 5634 5636 5637 5635 5635 5634 5638 5626 5609 5595 5570 5587 5577 5566 5544 5538 5536 5544 5526 5523 5524 5530 5522 5510 5505 5493 5482 5476 5469
5658 5662 5665 5668 5671 5675 5678 5675 5671 5669 5653 5639 5636 5633 5626 5628 5631 5633 5628 5627 5628 5619 5608 5601 5594 5570 5556 5549 5553 5536 5514 5509 5523 5522 5516 5524 5521 5531 5527 5508 5503 5496 5486 5479 5474
5658 5661 5665 5668 5670 5674 5673 5657 5649 5651 5636 5632 5630 5628 5624 5619 5620 5622 5621 5620 5611 5601 5591 5603 5577 5558 5550 5543 5539 5526 5506 5511 5530 5517 5509 5514 5529 5526 5518 5513 5506 5497 5487 5481 5471
5659 5662 5666 5668 5669 5667 5657 5649 5646 5644 5644 5632 5625 5623 5620 5616 5602 5603 5603 5596 5588 5587 5572 5584 5563 5552 5550 5540 5540 5527 5514 5500 5499 5510 5496 5486 5540 5535 5523 5505 5501 5495 5485 5477 5471
5658 5661 5665 5668 5665 5655 5649 5646 5644 5642 5636 5633 5630 5620 5618 5611 5605 5595 5588 5591 5582 5580 5566 5561 5553 5551 5549 5543 5526 5518 5517 5505 5498 5487 5511 5469 5530 5527 5508 5503 5498 5497 5485 5479 5470
5658 5660 5662 5668 5658 5650 5646 5644 5642 5640 5615 5631 5622 5619 5612 5607 5590 5595 5581 5588 5577 5569 5566 5569 5545 5541 5552 5536 5516 5532 5504 5495 5482 5452 5448 5470 5459 5533 5493 5516 5512 5505 5490 5480 5469
5657 5659 5661 5658 5654 5645 5644 5642 5639 5632 5607 5627 5613 5601 5613 5591 5584 5580 5578 5571 5563 5567 5555 5542 5533 5530 5528 5523 5517 5512 5496 5487 5464 5455 5484 5427 5459 5534 5522 5515 5509 5494 5486 5479 5468
5655 5656 5658 5653 5646 5644 5642 5639 5635 5614 5626 5622 5610 5594 5590 5580 5583 5563 5553 5525 5536 5579 5540 5546 5536 5525 5516 5514 5513 5493 5496 5526 5534 5515 5541 5415 5440 5525 5530 5510 5503 5498 5486 5470 5458
5654 5654 5649 5646 5643 5642 5638 5643 5621 5625 5618 5592 5592 5594 5604 5568 5565 5558 5558 5532 5506 5502 5495 5521 5576 5525 5508 5488 5484 5472 5454 5497 5515 5516 5501 5429 5457 5556 5514 5501 5489 5480 5473 5462 5454
5650 5648 5645 5642 5640 5639 5638 5618 5615 5614 5592 5588 5595 5609 5606 5583 5561 5565 5524 5511 5494 5479 5533 5497 5555 5505 5501 5484 5472 5477 5472 5439 5403 5354 5403 5467 5483 5518 5514 5499 5487 5474 5468 5459 5450
5644 5642 5640 5639 5637 5633 5629 5612 5604 5583 5580 5579 5600 5587 5591 5573 5576 5544 5543 5504 5499 5480 5466 5477 5496 5507 5484 5475 5461 5453 5433 5456 5405 5471 5477 5484 5447 5514 5520 5523 5495 5479 5466 5454 5442
5640 5643 5637 5636 5633 5628 5605 5590 5589 5575 5573 5580 5585 5559 5537 5541 5547 5528 5521 5517 5494 5484 5467 5440 5458 5510 5479 5462 5457 5432 5408 5393 5400 5390 5426 5418 5495 5492 5499 5494 5476 5472 5457 5438 5428
5631 5638 5633 5631 5628 5580 5572 5591 5581 5574 5567 5565 5556 5533 5534 5541 5534 5543 5532 5522 5493 5480 5465 5444 5428 5457 5508 5435 5414 5420 5419 5407 5451 5423 5328 5329 5441 5504 5485 5472 5444 5447 5440 5431 5418
5616 5615 5628 5628 5605 5591 5575 5582 5574 5568 5566 5560 5559 5547 5528 5541 5532 5533 5531 5508 5494 5487 5457 5441 5442 5478 5528 5456 5431 5419 5378 5369 5373 5369 5349 5397 5487 5493 5456 5454 5452 5434 5446 5430 5417
5606 5605 5611 5594 5574 5572 5558 5589 5585 5560 5561 5553 5546 5538 5531 5531 5511 5509 5518 5501 5487 5484 5483 5464 5425 5467 5542 5533 5440 5428 5393 5365 5395 5388 5384 5421 5518 5540 5515 5482 5478 5466 5442 5425 5409
5585 5576 5571 5573 5579 5571 5561 5551 5580 5576 5547 5541 5540 5530 5509 5512 5521 5505 5507 5500 5481 5484 5465 5450 5438 5442 5470 5475 5458 5460 5447 5379 5391 5430 5434 5529 5439 5493 5490 5480 5472 5456 5436 5419 5403
5577 5574 5548 5541 5560 5573 5557 5551 5568 5560 5537 5540 5533 5537 5511 5505 5529 5515 5512 5495 5503 5463 5450 5431 5443 5415 5435 5467 5441 5447 5450 5434 5418 5424 5427 5438 5449 5472 5466 5453 5440 5430 5429 5414 5406
5562 5562 5563 5548 5546 5550 5553 5569 5552 5545 5542 5540 5528 5512 5507 5516 5513 5510 5502 5492 5487 5462 5444 5423 5414 5418 5470 5467 5461 5481 5462 5448 5416 5417 5429 5437 5484 5453 5465 5451 5450 5439 5420 5407 5392